Flag for U.S.A. Weather past 2 weeks in Pasadena, Texas, U.S.A.

Now
81 °F

Passing clouds.


Feels Like: 86 °F
Forecast: 80 / 90 °F
Wind: 5 mph from Southeast

Location: Houston / Ellington

Current Time: Aug 29, 2014 at 3:07:19 AM

Latest Report: Aug 29, 2014 at 1:50 AM


Visibility: 10 mi

Pressure: 29.90 "Hg

Humidity: 84%

Dew point: 75 °F

Location of PasadenaLocation

Historic Weather in Pasadena — Graph

°F

Pasadena temperature yesterday

Maximum temperature yesterday: 82 °F (at 5:50 PM)
Minimum temperature yesterday: 75 °F (at 8:50 AM)
Average temperature yesterday: 79 °F

Past Weeks' High & Low Weather Summary

 TemperatureHumidityPressure
High97 °F (Aug 16, 1:50 PM)94% (Aug 16, 6:50 AM)30.11 "Hg (Aug 16, 6:50 AM)
Low75 °F (Aug 28, 8:50 AM)44% (Aug 16, 1:50 PM)29.86 "Hg (Aug 25, 5:50 PM)
Average85 °F75%29.98 "Hg
* Reported Aug 14 1:50 AM — Aug 29 1:50 AM, Pasadena, Weather by CustomWeather, © 2014

Note: Actual official high and low records may vary slightly from our data, if they occured in-between our weather recording intervals... More about our weather records

Advertising

Pasadena weather history for previous 24 hours

 ConditionsComfort  
Time TempWeatherWind HumidityBarometerVisibility
1:50 AM
Aug 29
81 °FPassing clouds.5 mph84%29.90 "Hg10 mi
12:50 AM81 °FPassing clouds.No wind84%29.90 "Hg10 mi
11:50 PM
Aug 28
81 °FPassing clouds.3 mph84%29.91 "Hg10 mi
10:50 PM81 °FPassing clouds.3 mph84%29.91 "Hg10 mi
9:50 PM81 °FPassing clouds.6 mph84%29.91 "Hg10 mi
8:50 PM81 °FPartly cloudy.6 mph79%29.90 "Hg10 mi
7:50 PM81 °FBroken clouds.3 mph84%29.90 "Hg10 mi
5:50 PM82 °FBroken clouds.5 mph79%29.90 "Hg10 mi
4:50 PM81 °FBroken clouds.7 mph84%29.90 "Hg7 mi
3:50 PM79 °FBroken clouds.6 mph84%29.92 "Hg7 mi
2:50 PM77 °FLight rain. Broken clouds.7 mph89%29.94 "Hg7 mi
12:50 PM81 °FPartly sunny.6 mph89%29.96 "Hg10 mi
11:50 AM79 °FPartly sunny.7 mph89%29.97 "Hg10 mi
10:50 AM77 °FPartly sunny.6 mph94%29.98 "Hg10 mi
9:50 AM75 °FBroken clouds.8 mph94%29.96 "Hg10 mi
8:50 AM75 °FLight rain. Low clouds.7 mph94%29.98 "Hg4 mi
7:50 AM79 °FPartly cloudy.3 mph89%29.94 "Hg10 mi
6:50 AM79 °FPassing clouds.5 mph89%29.94 "Hg10 mi
5:50 AM79 °FPassing clouds.5 mph89%29.92 "Hg10 mi
3:50 AM79 °FPassing clouds.No wind89%29.94 "Hg10 mi
Weather by CustomWeather, © 2014

See weather overviewHow to use our weather pages